Location: *
(46.1200°N, 11.2700°E)
Time: 08:33:05
(UTC+00:00)

Meteor 1-11 Rocket - Pass Details

Date: 02 March 2021
Orbit: 831 x 916 km, 81.2° (Epoch: 18 April)

Event Time Altitude Azimuth Distance (km) Brightness Sun altitude
Rises 19:28:26 0° 192° (SSW) 3,471 6.8 -25.7°
Reaches altitude 10° 19:30:53 10° 193° (SSW) 2,524 6.1 -26.1°
Maximum altitude 19:36:38 81° 281° (W) 879 3.7 -27.1°
Drops below altitude 10° 19:42:17 10° 9° (N) 2,485 6.2 -28.0°
Sets 19:44:41 0° 11° (N) 3,415 7.0 -28.4°
